Regional Weather Roundup
Issued by NWS

Home | Current Version | Previous Version | Graphics & Text | Print | Product List | Glossary On
Versions: 1 2 3 4 5 6 7 8 9 10 11 12 13 14 15 16 17 18 19 20 21 22 23 24 25 26 27
000
ASUS45 KSLC 282110
RWRUT

UTAH REGIONAL WEATHER ROUNDUP
NATIONAL WEATHER SERVICE SALT LAKE CITY UT
300 PM MDT THU JUL 28 2016

UTZ001>011-023>025-282200-

NORTHERN UTAH

CITY           SKY/WX    TMP DP  RH WIND       PRES   REMARKS
BRIGHAM CITY     N/A     96  26   8 NE3       30.07F HX  90
HILL AFB       NOT AVBL
LOGAN            N/A     95  35  12 VRB3      30.09F HX  90
OGDEN            N/A     96  35  11 VRB5      30.09F HX  91
PROVO AIRPORT  MOSUNNY   93  43  17 SW6       30.09F
SALT LAKE CITY   N/A     99  34  10 NW6       30.06F HX  93
VERNAL         SUNNY     95  28   9 S6        30.10F
WENDOVER         N/A     97  36  11 SE10      30.08F HX  92
HEBER CITY       N/A     99  28   8 NW9       30.15F HX  92
WEST JORDAN    SUNNY     95  43  16 NW12      30.11  HX  91

$$

UTZ012>022-026-027-282200-

SOUTHERN/CENTRAL UTAH

CITY           SKY/WX    TMP DP  RH WIND       PRES   REMARKS
BLANDING         N/A     97  34  10 N21G36    30.25F HX  92
BRYCE CANYON     N/A     85  30  13 SW15G21   30.35R
CEDAR CITY       N/A     97  36  12 SW24G32   30.15S HX  92
DELTA            N/A    100  25   7 NE6G16    30.08F HX  93
MILFORD          N/A    102  22   6 VRB5G20   30.09F HX  94
MOAB/CYNLANDS    N/A    105  26   6 MISG      30.01F HX  97
PRICE            N/A     98  24   7 SW12G18   30.15F HX  91
ST GEORGE        N/A    109  48  13 W8G16     29.89F HX 106

$$

REGIONAL REPORTS     COLORADO/ARIZONA

CITY           SKY/WX    TMP DP  RH WIND       PRES   REMARKS
CRAIG, CO      SUNNY     94  23   8 NW9G22    30.19F
GRAND JUNCTION SUNNY    101  25   7 W10       30.05F HX  94
RIFLE          SUNNY     96  25   8 W14G21    30.10F HX  90
MONTROSE       SUNNY     96  28   9 NW9       30.16F HX  90
CORTEZ         SUNNY     98  35  11 VRB6      30.16F HX  93
PAGE, AZ         N/A    108  29   6 NE8       30.00F HX 100
GRAND CANYON   PTSUNNY   87  40  19 N18G30    30.28S
KINGMAN          N/A    105  47  14 SW12      29.99F HX 101
FLAGSTAFF        N/A     80  39  23 W9G17     30.31S

$$

REGIONAL REPORTS    NEVADA/IDAHO/WYOMING

CITY           SKY/WX    TMP DP  RH WIND       PRES   REMARKS
LAS VEGAS, NV  PTSUNNY  112  37   8 VRB5      29.80F HX 105
ELY              N/A     98  24   7 N12G17    30.20F HX  91
ELKO             N/A     99  25   7 SW7       30.12F HX  92
POCATELLO, ID  SUNNY     91  38  15 SW12      30.12F
BURLEY           N/A     89  49  25 SW7       30.09F
EVANSTON, WY   SUNNY     88  23   9 NW22G36   30.30S
ROCK SPRINGS   SUNNY     87  27  11 NW18G26   30.23F
KEMMERER         N/A     86  27  11 W18G38    30.30F

$$




USA.gov is the U.S. government's official web portal to all federal, state and local government web resources and services.